GW0720 Weather Reports


Display with metric or nautical units.
time (UTC)temp
F
wind
direction
speed
MPH
gust
MPH
rain 1hr
in
rain 24hr
in
rain mn
in
humidity
%
barometer
mb
20260903053100 76 0 0.0 0.0 0.00 0.00 0.00 95 1018.3
20260903051608 76 0 0.0 0.0 0.00 0.00 0.00 95 1018.4
20260903044605 76 0 0.0 1.0 0.00 0.00 0.00 95 1018.3
20260903043104 76 0 0.0 0.0 0.00 0.00 0.00 95 1018.2
20260903041559 76 0 0.0 0.0 0.00 0.00 0.00 95 1018.0
20260903040104 76 0 0.0 0.0 0.00 0.00 0.00 94 1017.8
20260903034601 76 0 0.0 0.0 0.00 0.00 0.00 94 1017.9
20260903033104 76 0 0.0 0.0 0.00 0.00 0.00 94 1017.7
20260903031559 76 0 0.0 0.0 0.00 0.00 0.00 94 1017.7
20260903030056 76 0 0.0 0.0 0.00 0.00 0.00 93 1017.9
20260903024556 76 0 0.0 0.0 0.00 0.00 0.00 93 1017.8
20260903023100 77 0 0.0 0.0 0.00 0.00 0.00 93 1018.0
20260903021600 77 0 0.0 0.0 0.00 0.00 0.00 93 1018.1
20260903020056 77 0 0.0 0.0 0.00 0.00 0.00 92 1018.2
20260903014632 77 0 0.0 0.0 0.00 0.00 0.00 92 1018.2
20260903013111 78 0 0.0 0.0 0.00 0.00 0.00 91 1018.2
20260903011611 78 0 0.0 1.0 0.00 0.00 0.00 91 1018.3
20260903010107 79 0 0.0 0.0 0.00 0.00 0.00 90 1018.3
20260903004605 79 0 0.0 0.0 0.00 0.00 0.00 89 1018.3
20260903003102 79 0 0.0 0.0 0.00 0.00 0.00 89 1018.2
20260903001557 80 0 0.0 0.0 0.00 0.00 0.00 88 1018.2
20260903000107 80 0 0.0 0.0 0.00 0.00 0.00 87 1017.9
20260902234605 81 0 0.0 0.0 0.00 0.00 0.00 86 1017.9
20260902233121 81 0 0.0 1.0 0.00 0.00 0.00 85 1017.7
20260902231603 82 0 0.0 0.0 0.00 0.00 0.00 84 1018.6
20260902230108 82 51 0.0 2.0 0.00 0.00 0.00 84 1018.4
20260902224610 82 48 0.0 2.0 0.00 0.00 0.00 84 1018.2
20260902223126 83 0 0.0 2.0 0.00 0.00 0.00 84 1018.9
20260902221558 83 0 0.0 1.0 0.00 0.00 0.00 84 1018.7
20260902220111 84 84 0.0 2.0 0.00 0.00 0.00 82 1018.7
20260902214610 85 0 0.0 4.0 0.00 0.00 0.00 78 1018.7
20260902213105 86 169 1.0 4.0 0.00 0.00 0.00 76 1018.5
20260902211601 87 76 0.0 3.0 0.00 0.00 0.00 67 1018.5
20260902210059 88 78 1.0 9.0 0.00 0.00 0.00 67 1018.7
20260902204605 92 0 1.0 4.0 0.00 0.00 0.00 69 1019.1
20260902203104 92 238 1.0 4.0 0.00 0.00 0.00 67 1018.4
20260902201601 91 0 0.0 3.0 0.00 0.00 0.00 69 1018.6
20260902194601 94 0 0.0 2.0 0.00 0.00 0.00 66 1018.4
20260902193106 95 0 0.0 2.0 0.00 0.00 0.00 63 1018.3
20260902191638 95 0 0.0 4.0 0.00 0.00 0.00 61 1018.3
20260902190101 94 0 0.0 3.0 0.00 0.00 0.00 64 1018.5
20260902184656 94 229 0.0 4.0 0.00 0.00 0.00 62 1018.7
20260902183109 94 0 0.0 4.0 0.00 0.00 0.00 60 1018.9
20260902181602 94 243 1.0 4.0 0.00 0.00 0.00 61 1018.9
20260902174613 95 245 0.0 4.0 0.00 0.00 0.00 58 1019.1
20260902173121 94 322 1.0 5.0 0.00 0.00 0.00 56 1019.1
20260902171626 94 0 1.0 5.0 0.00 0.00 0.00 57 1019.1
20260902170124 94 0 0.0 4.0 0.00 0.00 0.00 58 1019.1
20260902164713 93 82 0.0 3.0 0.00 0.00 0.00 58 1019.2
20260902164600 93 82 0.0 3.0 0.00 0.00 0.00 58 1019.2
20260902163138 93 235 1.0 4.0 0.00 0.00 0.00 58 1019.3
20260902162003 93 0 0.0 1.0 0.00 0.00 0.00 62 1019.3
20260902160104 93 217 0.0 3.0 0.00 0.00 0.00 61 1019.2
20260902154601 93 0 0.0 2.0 0.00 0.00 0.00 62 1019.3
20260902151556 93 0 0.0 1.0 0.00 0.00 0.00 60 1019.4
20260902150155 91 0 0.0 4.0 0.00 0.00 0.00 65 1019.6
20260902144737 90 0 0.0 6.0 0.00 0.00 0.00 68 1019.6
20260902143106 89 217 1.0 3.0 0.00 0.00 0.00 67 1019.5
20260902133230 81 0 0.0 1.0 0.00 0.00 0.00 83 1018.8
20260902131628 79 246 0.0 3.0 0.00 0.00 0.00 85 1018.7
20260902130059 77 0 0.0 1.0 0.00 0.00 0.00 92 1018.8
20260902124629 76 0 0.0 0.0 0.00 0.00 0.00 95 1018.7
20260902123154 76 0 0.0 0.0 0.00 0.00 0.00 96 1018.7
20260902121603 75 0 0.0 0.0 0.00 0.00 0.00 96 1018.6
20260902114601 74 0 0.0 0.0 0.00 0.00 0.00 96 1018.3
20260902113057 74 0 0.0 0.0 0.00 0.00 0.00 96 1018.4
20260902111600 74 0 0.0 0.0 0.00 0.00 0.00 95 1018.5
20260902110111 74 0 0.0 0.0 0.00 0.00 0.00 96 1018.4
20260902104600 74 0 0.0 0.0 0.00 0.00 0.00 95 1018.3
20260902103057 74 0 0.0 0.0 0.00 0.00 0.00 96 1018.1
20260902101557 74 0 0.0 0.0 0.00 0.00 0.00 96 1018.0
20260902100059 74 0 0.0 0.0 0.00 0.00 0.00 96 1017.7
20260902094600 74 0 0.0 0.0 0.00 0.00 0.00 96 1017.7
20260902093056 74 0 0.0 0.0 0.00 0.00 0.00 96 1017.7
20260902091603 74 0 0.0 0.0 0.00 0.00 0.00 96 1017.6
20260902090059 73 0 0.0 0.0 0.00 0.00 0.00 95 1017.4
20260902084601 73 0 0.0 0.0 0.00 0.00 0.00 95 1017.7
20260902083058 73 0 0.0 0.0 0.00 0.00 0.00 95 1017.6
20260902081554 73 0 0.0 0.0 0.00 0.00 0.00 95 1017.4
20260902080059 73 0 0.0 0.0 0.00 0.00 0.00 95 1017.3
20260902074601 73 0 0.0 0.0 0.00 0.00 0.00 95 1017.4
20260902073057 74 0 0.0 0.0 0.00 0.00 0.00 95 1017.5
20260902071604 73 0 0.0 0.0 0.00 0.00 0.00 94 1017.5
20260902070110 74 0 0.0 0.0 0.00 0.00 0.00 94 1017.5
20260902064559 74 0 0.0 0.0 0.00 0.00 0.00 94 1017.5
20260902063108 74 0 0.0 0.0 0.00 0.00 0.00 94 1017.4
20260902061617 74 0 0.0 0.0 0.00 0.00 0.00 94 1017.4
20260902060115 74 0 0.0 0.0 0.00 0.00 0.00 93 1017.4
20260902054601 74 0 0.0 0.0 0.00 0.00 0.00 93 1017.4